GW0220 Weather Reports


Display with metric or nautical units.
time (UTC)temp
F
wind
direction
speed
MPH
gust
MPH
rain 1hr
in
rain 24hr
in
rain mn
in
humidity
%
barometer
mb
20260505205933 60 347 1.0 6.0 0.00 0.13 0.13 90 1005.9
20260505205432 61 256 3.0 7.0 0.00 0.13 0.13 90 1005.8
20260505204928 61 333 5.0 7.0 0.00 0.13 0.13 89 1005.8
20260505204426 62 303 3.0 17.0 0.00 0.13 0.13 88 1005.5
20260505203923 63 332 6.0 7.0 0.00 0.13 0.13 87 1005.4
20260505203419 63 45 4.0 7.0 0.00 0.13 0.13 87 1005.2
20260505202916 63 44 1.0 5.0 0.00 0.13 0.13 89 1005.2
20260505202412 63 35 3.0 9.0 0.00 0.13 0.13 89 1005.3
20260505201909 62 65 4.0 7.0 0.00 0.13 0.13 89 1005.6
20260505201406 62 349 4.0 7.0 0.00 0.13 0.13 89 1005.4
20260505200904 62 336 1.0 8.0 0.00 0.13 0.13 89 1005.4
20260505200401 62 4 3.0 7.0 0.00 0.13 0.13 89 1005.4
20260505195856 62 335 4.0 10.0 0.00 0.13 0.13 89 1005.6
20260505195354 62 348 4.0 9.0 0.00 0.13 0.13 89 1005.6
20260505194851 62 315 4.0 8.0 0.00 0.13 0.13 89 1005.7
20260505194348 62 324 1.0 7.0 0.00 0.13 0.13 89 1005.9
20260505193843 64 296 2.0 6.0 0.00 0.13 0.13 86 1005.7
20260505193341 73 293 7.0 9.0 0.00 0.13 0.13 83 1005.8
20260505192838 73 183 3.0 5.0 0.00 0.13 0.13 84 1005.5
20260505192337 73 192 5.0 8.0 0.00 0.13 0.13 84 1005.4
20260505191834 74 168 3.0 8.0 0.00 0.13 0.13 83 1005.3
20260505191333 74 198 5.0 9.0 0.00 0.13 0.13 82 1005.2
20260505190829 75 221 7.0 9.0 0.00 0.13 0.13 82 1005.2
20260505190324 74 188 6.0 8.0 0.00 0.13 0.13 82 1004.9
20260505185820 75 174 6.0 8.0 0.00 0.13 0.13 83 1004.8
20260505185317 74 189 7.0 9.0 0.00 0.13 0.13 83 1004.6
20260505184813 73 220 7.0 9.0 0.00 0.13 0.13 84 1004.7
20260505184310 73 170 9.0 10.0 0.00 0.13 0.13 83 1004.8
20260505183807 73 163 7.0 9.0 0.00 0.13 0.13 83 1004.9
20260505183304 73 190 7.0 9.0 0.00 0.13 0.13 83 1005.1
20260505182801 73 151 4.0 6.0 0.00 0.13 0.13 83 1005.0
20260505182257 73 199 1.0 8.0 0.00 0.13 0.13 85 1004.9
20260505181754 73 120 4.0 6.0 0.00 0.13 0.13 85 1005.0
20260505181251 72 155 5.0 9.0 0.00 0.13 0.13 85 1004.9
20260505180748 72 148 5.0 8.0 0.00 0.13 0.13 86 1004.9
20260505180244 71 180 9.0 10.0 0.00 0.13 0.13 87 1005.1
20260505175741 71 188 7.0 15.0 0.00 0.13 0.13 86 1005.2
20260505175237 71 158 9.0 11.0 0.00 0.13 0.13 86 1005.2
20260505174734 71 131 6.0 11.0 0.00 0.13 0.13 87 1005.1
20260505174231 71 156 8.0 11.0 0.00 0.13 0.13 86 1005.0
20260505173727 70 168 4.0 8.0 0.00 0.13 0.13 88 1005.1
20260505173224 70 183 6.0 10.0 0.00 0.13 0.13 88 1005.1
20260505172721 70 182 7.0 10.0 0.00 0.13 0.13 88 1005.1
20260505172218 71 166 8.0 10.0 0.00 0.13 0.13 87 1005.2
20260505171718 71 176 8.0 9.0 0.00 0.13 0.13 88 1005.3
20260505171215 70 162 10.0 15.0 0.00 0.13 0.13 87 1005.0
20260505170712 69 144 3.0 10.0 0.00 0.13 0.13 89 1005.1
20260505170209 69 151 9.0 11.0 0.00 0.13 0.13 89 1005.1
20260505165704 69 147 9.0 11.0 0.00 0.13 0.13 89 1005.2
20260505165200 69 140 6.0 11.0 0.00 0.13 0.13 88 1005.3
20260505164655 69 164 5.0 11.0 0.00 0.13 0.13 88 1005.3
20260505164153 69 169 8.0 11.0 0.00 0.13 0.13 88 1005.2
20260505163651 69 171 8.0 13.0 0.00 0.13 0.13 89 1005.3
20260505163149 69 157 8.0 10.0 0.00 0.13 0.13 88 1005.1
20260505162646 69 144 7.0 11.0 0.00 0.13 0.13 88 1005.3
20260505162144 69 181 6.0 9.0 0.00 0.13 0.13 88 1005.3
20260505161640 69 132 11.0 14.0 0.00 0.13 0.13 88 1005.3
20260505161138 69 135 9.0 14.0 0.00 0.13 0.13 88 1004.9
20260505160636 69 159 11.0 15.0 0.00 0.13 0.13 87 1004.9
20260505160133 69 186 12.0 18.0 0.00 0.13 0.13 87 1004.9
20260505153112 69 169 7.0 18.0 0.00 0.13 0.13 87 1004.6
20260505152609 69 171 8.0 15.0 0.00 0.13 0.13 87 1004.4
20260505152104 69 168 10.0 16.0 0.00 0.13 0.13 87 1004.6
20260505151600 68 141 10.0 13.0 0.00 0.13 0.13 88 1004.7
20260505151058 68 150 7.0 13.0 0.00 0.13 0.13 89 1004.8
20260505150553 68 184 10.0 17.0 0.00 0.13 0.13 88 1004.9
20260505140519 66 172 2.0 5.0 0.00 0.13 0.13 90 1005.3
20260505124932 64 168 3.0 7.0 0.00 0.13 0.13 92 1005.6
20260505124429 64 138 2.0 6.0 0.00 0.13 0.13 92 1005.4
20260505123925 64 69 1.0 7.0 0.00 0.13 0.13 92 1005.4
20260505123422 64 78 2.0 5.0 0.00 0.13 0.13 92 1005.1
20260505122918 64 65 2.0 5.0 0.00 0.13 0.13 92 1005.2
20260505122416 64 125 0.0 6.0 0.00 0.13 0.13 92 1005.7
20260505121912 64 29 3.0 5.0 0.00 0.13 0.13 92 1005.5
20260505121409 64 73 0.0 3.0 0.00 0.13 0.13 92 1005.4
20260505120905 63 94 1.0 5.0 0.00 0.13 0.13 92 1005.3
20260505120402 64 115 1.0 3.0 0.00 0.13 0.13 92 1005.1
20260505115900 64 26 0.0 2.0 0.00 0.13 0.13 92 1005.1
20260505115357 63 51 2.0 5.0 0.00 0.13 0.13 92 1005.3
20260505114855 63 65 1.0 2.0 0.00 0.13 0.13 92 1005.2
20260505114351 63 19 1.0 2.0 0.00 0.13 0.13 92 1005.3
20260505113848 63 34 0.0 2.0 0.00 0.13 0.13 92 1005.0
20260505113344 63 44 1.0 8.0 0.00 0.13 0.13 92 1005.0
20260505112840 63 42 3.0 7.0 0.00 0.13 0.13 92 1004.9
20260505112338 63 57 1.0 9.0 0.00 0.13 0.13 93 1004.9
20260505111833 63 57 1.0 2.0 0.00 0.13 0.13 93 1004.8
20260505111329 63 106 3.0 5.0 0.00 0.13 0.13 93 1004.8
20260505110825 63 53 2.0 3.0 0.00 0.13 0.13 94 1004.6
20260505110323 63 49 1.0 5.0 0.00 0.13 0.13 94 1004.6
20260505101757 63 79 2.0 8.0 0.00 0.13 0.13 93 1004.6
20260505101253 63 46 5.0 7.0 0.00 0.13 0.13 93 1004.6
20260505100749 63 44 4.0 9.0 0.00 0.13 0.13 93 1004.6
20260505100246 63 45 0.0 5.0 0.00 0.13 0.13 92 1004.7
20260505095741 63 61 6.0 10.0 0.00 0.13 0.13 92 1004.9
20260505095240 63 18 3.0 6.0 0.00 0.13 0.13 92 1004.9
20260505094735 63 42 2.0 5.0 0.00 0.13 0.13 92 1004.8
20260505094232 63 37 1.0 2.0 0.00 0.13 0.13 92 1004.9
20260505093728 63 64 1.0 3.0 0.00 0.13 0.13 92 1005.1
20260505093226 63 52 2.0 6.0 0.00 0.13 0.13 93 1004.6
20260505092722 63 63 1.0 3.0 0.00 0.13 0.13 93 1004.7
20260505092221 63 352 1.0 1.0 0.00 0.13 0.13 93 1005.0
20260505091718 63 357 0.0 1.0 0.00 0.13 0.13 93 1005.0
20260505091216 63 4 1.0 1.0 0.00 0.13 0.13 92 1005.2
20260505090713 63 32 1.0 1.0 0.00 0.13 0.13 92 1005.1
20260505090211 63 43 2.0 2.0 0.00 0.13 0.13 92 1004.9
20260505085708 63 1 0.0 2.0 0.00 0.13 0.13 92 1004.8
20260505085206 63 36 1.0 3.0 0.00 0.13 0.13 92 1004.9
20260505084703 63 107 2.0 3.0 0.00 0.13 0.13 93 1005.0
20260505084203 63 161 2.0 3.0 0.00 0.13 0.13 93 1005.1
20260505083659 63 197 1.0 2.0 0.00 0.13 0.13 92 1005.1
20260505083155 63 158 2.0 5.0 0.00 0.13 0.13 92 1005.1
20260505082651 63 2 1.0 2.0 0.00 0.13 0.13 92 1005.2
20260505082148 63 31 1.0 2.0 0.00 0.13 0.13 91 1005.2
20260505081644 63 8 0.0 0.0 0.00 0.13 0.13 90 1005.0
20260505081142 63 30 2.0 6.0 0.00 0.13 0.13 89 1005.1
20260505080639 64 317 3.0 5.0 0.00 0.13 0.13 87 1005.1
20260505080135 64 161 1.0 7.0 0.00 0.13 0.13 85 1004.5
20260505075631 64 194 5.0 7.0 0.00 0.13 0.13 85 1004.4
20260505075128 64 184 3.0 5.0 0.00 0.13 0.13 85 1004.3
20260505074625 64 238 2.0 7.0 0.00 0.13 0.13 84 1003.7
20260505074122 64 183 6.0 9.0 0.00 0.13 0.13 84 1003.3
20260505073620 64 173 9.0 11.0 0.00 0.13 0.13 85 1003.2
20260505073118 65 169 6.0 13.0 0.00 0.13 0.13 83 1003.0
20260505072613 65 171 9.0 15.0 0.00 0.13 0.13 83 1003.2
20260505072110 65 123 11.0 13.0 0.00 0.13 0.13 83 1003.2
20260505071605 65 174 9.0 17.0 0.00 0.13 0.13 82 1003.4
20260505071103 65 156 12.0 16.0 0.00 0.13 0.13 83 1003.6
20260505070600 66 174 11.0 14.0 0.00 0.13 0.13 82 1003.6
20260505070056 65 145 11.0 16.0 0.00 0.13 0.13 83 1004.3
20260505065552 63 165 11.0 20.0 0.00 0.13 0.13 88 1004.3
20260505065049 63 169 13.0 16.0 0.00 0.13 0.13 91 1004.4
20260505064546 63 171 9.0 13.0 0.19 0.13 0.13 92 1004.8
20260505064045 64 171 9.0 14.0 0.12 0.12 0.12 93 1004.3
20260505063542 64 152 5.0 9.0 0.00 0.10 0.10 86 1004.6
20260505063037 64 162 9.0 14.0 0.00 0.10 0.10 86 1004.6
20260505062534 64 153 12.0 14.0 0.00 0.10 0.10 87 1004.7
20260505062031 64 168 7.0 9.0 0.00 0.10 0.10 88 1004.8
20260505061529 63 168 11.0 17.0 0.00 0.10 0.10 89 1004.7
20260505061027 63 165 9.0 16.0 0.12 0.10 0.10 89 1005.1
20260505060524 64 170 12.0 20.0 0.07 0.09 0.09 87 1005.2
20260505060020 64 186 5.0 13.0 0.00 0.08 0.08 86 1005.2
20260505055516 64 198 7.0 8.0 0.05 0.08 0.08 86 1005.0
20260505055013 64 171 10.0 13.0 0.31 0.08 0.08 85 1005.1
20260505054510 65 180 7.0 13.0 0.38 0.07 0.07 83 1004.8
20260505054008 67 199 14.0 25.0 0.17 0.03 0.03 77 1005.5
20260505053505 68 189 8.0 17.0 0.00 0.00 0.00 73 1004.7
20260505053002 68 170 19.0 23.0 0.00 0.00 0.00 71 1004.7
20260505052459 67 209 13.0 21.0 0.00 0.00 0.00 74 1004.7
20260505051956 67 170 14.0 23.0 0.00 0.00 0.00 75 1004.6
20260505051452 68 156 12.0 15.0 0.00 0.00 0.00 71 1004.8
20260505050951 68 184 8.0 10.0 0.00 0.00 0.00 71 1005.2
20260505050449 68 189 10.0 16.0 0.00 0.00 0.00 71 1005.1
20260505041416 68 172 6.0 8.0 0.00 0.00 0.00 71 1006.0
20260505040913 68 161 5.0 10.0 0.00 0.00 0.00 70 1006.2
20260505040411 68 173 7.0 10.0 0.00 0.00 0.00 70 1006.3
20260505035908 68 173 7.0 13.0 0.00 0.00 0.00 70 1006.1
20260505035404 68 180 6.0 10.0 0.00 0.00 0.00 70 1006.6
20260505034901 67 181 7.0 10.0 0.00 0.00 0.00 71 1006.5
20260505034357 68 172 5.0 7.0 0.00 0.00 0.00 71 1006.6
20260505033855 68 130 7.0 11.0 0.00 0.00 0.00 71 1006.5
20260505033351 68 185 6.0 13.0 0.00 0.00 0.00 70 1006.5
20260505032850 68 187 4.0 8.0 0.00 0.00 0.00 71 1006.5
20260505032346 68 152 8.0 13.0 0.00 0.00 0.00 70 1006.5
20260505031843 67 195 4.0 6.0 0.00 0.00 0.00 71 1006.7
20260505031339 68 200 5.0 7.0 0.00 0.00 0.00 71 1006.6
20260505030837 68 179 4.0 10.0 0.00 0.00 0.00 71 1006.7
20260505030332 68 174 7.0 8.0 0.00 0.00 0.00 70 1006.7
20260505025828 68 181 5.0 8.0 0.00 0.00 0.00 70 1006.8
20260505025326 68 168 3.0 7.0 0.00 0.00 0.00 70 1006.6
20260505024824 68 191 6.0 10.0 0.00 0.00 0.00 70 1006.4
20260505024322 69 177 7.0 8.0 0.00 0.00 0.00 69 1006.6
20260505023819 69 182 6.0 10.0 0.00 0.00 0.00 70 1006.6
20260505023315 68 175 6.0 8.0 0.00 0.00 0.00 70 1006.6
20260505022813 68 170 5.0 9.0 0.00 0.00 0.00 70 1006.6
20260505022310 68 184 5.0 6.0 0.00 0.00 0.00 71 1006.9
20260505021807 69 211 6.0 8.0 0.00 0.00 0.00 70 1006.7
20260505021303 69 195 6.0 9.0 0.00 0.00 0.00 70 1006.7
20260505020759 69 169 5.0 9.0 0.00 0.00 0.00 70 1006.5
20260505020255 69 153 4.0 7.0 0.00 0.00 0.00 70 1006.6
20260505015752 69 175 5.0 7.0 0.00 0.00 0.00 70 1006.5
20260505015249 69 176 3.0 7.0 0.00 0.00 0.00 70 1006.6
20260505014746 69 187 5.0 7.0 0.00 0.00 0.00 70 1006.4
20260505014243 69 182 3.0 8.0 0.00 0.00 0.00 71 1006.4
20260505013739 69 190 3.0 7.0 0.00 0.00 0.00 71 1006.5
20260505013237 69 193 4.0 5.0 0.00 0.00 0.00 70 1006.4
20260505012735 70 189 3.0 3.0 0.00 0.00 0.00 70 1006.5
20260505012232 70 198 6.0 6.0 0.00 0.00 0.00 69 1006.3
20260505011728 70 189 7.0 8.0 0.00 0.00 0.00 68 1006.0
20260505011225 70 182 5.0 7.0 0.00 0.00 0.00 68 1006.1
20260505010721 71 202 3.0 5.0 0.00 0.00 0.00 68 1005.8
20260505010217 71 182 4.0 9.0 0.00 0.00 0.00 67 1005.9
20260505005714 71 190 6.0 8.0 0.00 0.00 0.00 67 1005.9
20260505005211 71 184 6.0 10.0 0.00 0.00 0.00 66 1005.6
20260505004708 71 191 4.0 9.0 0.00 0.00 0.00 66 1005.5
20260505004204 71 190 5.0 7.0 0.00 0.00 0.00 66 1005.7
20260505003702 72 172 10.0 11.0 0.00 0.00 0.00 66 1005.5
20260505003200 72 204 9.0 9.0 0.00 0.00 0.00 65 1005.6
20260505002655 72 195 9.0 13.0 0.00 0.00 0.00 65 1005.6
20260505002153 72 198 7.0 14.0 0.00 0.00 0.00 64 1005.5
20260505001650 72 174 6.0 8.0 0.00 0.00 0.00 65 1005.7
20260505001148 73 167 7.0 9.0 0.00 0.00 0.00 64 1005.7
20260505000644 73 192 5.0 9.0 0.00 0.00 0.00 65 1005.8
20260505000143 73 169 7.0 9.0 0.00 0.00 0.00 63 1005.8
20260504235638 73 176 6.0 9.0 0.00 0.00 0.00 64 1006.0
20260504235135 73 175 5.0 7.0 0.00 0.00 0.00 64 1006.0
20260504234633 73 197 7.0 9.0 0.00 0.00 0.00 63 1005.7
20260504234130 73 184 7.0 11.0 0.00 0.00 0.00 62 1005.9
20260504233625 73 188 5.0 11.0 0.00 0.00 0.00 63 1005.8
20260504233121 74 178 5.0 13.0 0.00 0.00 0.00 62 1006.0
20260504232620 74 170 7.0 9.0 0.00 0.00 0.00 62 1005.9
20260504232116 74 174 7.0 8.0 0.00 0.00 0.00 62 1006.0
20260504231613 74 172 9.0 13.0 0.00 0.00 0.00 61 1006.1
20260504231109 74 182 7.0 9.0 0.00 0.00 0.00 60 1006.1
20260504230605 74 164 6.0 10.0 0.00 0.00 0.00 62 1005.9
20260504230104 74 196 9.0 10.0 0.00 0.00 0.00 60 1006.2
20260504225602 74 177 9.0 11.0 0.00 0.00 0.00 60 1006.0
20260504225058 75 176 7.0 10.0 0.00 0.00 0.00 60 1005.9
20260504224555 75 186 9.0 15.0 0.00 0.00 0.00 59 1006.0
20260504224052 75 186 8.0 11.0 0.00 0.00 0.00 60 1005.9
20260504223549 75 195 10.0 17.0 0.00 0.00 0.00 58 1006.1
20260504223044 75 174 10.0 15.0 0.00 0.00 0.00 57 1005.9
20260504222542 75 163 10.0 16.0 0.00 0.00 0.00 57 1005.9
20260504222039 75 190 10.0 14.0 0.00 0.00 0.00 57 1006.0
20260504221536 75 202 7.0 16.0 0.00 0.00 0.00 58 1005.9
20260504221033 75 200 11.0 14.0 0.00 0.00 0.00 57 1006.1
20260504220529 75 187 9.0 13.0 0.00 0.00 0.00 59 1006.0
20260504220026 75 162 11.0 16.0 0.00 0.00 0.00 58 1006.1
20260504215523 76 187 7.0 13.0 0.00 0.00 0.00 58 1006.1
20260504215020 76 196 12.0 21.0 0.00 0.00 0.00 57 1006.2
20260504214516 76 158 9.0 16.0 0.00 0.00 0.00 58 1006.3
20260504214012 76 182 17.0 18.0 0.00 0.00 0.00 56 1006.3
20260504213509 76 171 8.0 14.0 0.00 0.00 0.00 57 1006.2
20260504213007 76 200 12.0 15.0 0.00 0.00 0.00 54 1006.2
20260504212502 76 181 13.0 25.0 0.00 0.00 0.00 55 1006.4
20260504212000 76 150 13.0 16.0 0.00 0.00 0.00 54 1006.4
20260504211456 77 185 15.0 21.0 0.00 0.00 0.00 54 1006.4
20260504210954 77 191 14.0 17.0 0.00 0.00 0.00 54 1006.6
20260504210450 77 161 16.0 21.0 0.00 0.00 0.00 53 1006.8